Printer-friendly version

IAU Minor Planet Center

Minor Planet Center

(349) Dembowska

Orbital Elements

The following orbital elements are taken from MPC 31001:
  (349) Dembowska
Epoch 2002 May 6.0 TT = JDT 2452400.5                   Goffin
M   3.16946              (2000.0)            P               Q
n   0.19704888     Peri.  345.34754     +0.94975684     -0.30328643
a   2.9247364      Node    32.63205     +0.29965519     +0.80976758
e   0.0855723      Incl.    8.24448     +0.09038094     +0.50228857
P   5.00           H    5.93          G   0.37           U   0
From 1414 observations at 72 oppositions, 1892-1996, mean residual 0".53.
An explanation of the orbital elements is available.

These orbital elements are also available in forms suitable for loading into a number of popular planetarium-type software programs.


Ephemeris

The following ephemeris is at intervals of five days. A daily ephemeris covering the same time interval is also available.

Date    TT    R. A. (2000) Decl.     Delta      r     Elong.  Phase     V
 
2002 09 13    04 46.51   +25 27.4    2.405    2.711    96.6    21.6    10.8
2002 09 18    04 50.08   +25 49.3    2.343    2.713   100.6    21.3    10.7
2002 09 23    04 53.11   +26 10.7    2.281    2.716   104.7    20.9    10.7
2002 09 28    04 55.56   +26 31.7    2.221    2.718   109.0    20.4    10.6
2002 10 03    04 57.38   +26 52.4    2.163    2.721   113.5    19.7    10.5
2002 10 08    04 58.53   +27 12.6    2.107    2.724   118.1    18.9    10.4
2002 10 13    04 58.97   +27 32.3    2.053    2.727   122.9    17.9    10.4
2002 10 18    04 58.68   +27 51.5    2.003    2.729   127.8    16.8    10.3
2002 10 23    04 57.64   +28 09.9    1.956    2.732   132.9    15.5    10.2
2002 10 28    04 55.86   +28 27.3    1.914    2.735   138.2    14.0    10.1
2002 11 02    04 53.34   +28 43.3    1.876    2.738   143.6    12.4    10.0
2002 11 07    04 50.13   +28 57.6    1.844    2.742   149.1    10.7     9.9
2002 11 12    04 46.29   +29 10.0    1.817    2.745   154.7     8.9     9.9
2002 11 17    04 41.92   +29 20.0    1.797    2.748   160.2     7.0     9.8
2002 11 22    04 37.14   +29 27.4    1.783    2.751   165.6     5.1     9.7
2002 11 27    04 32.09   +29 32.1    1.777    2.754   170.2     3.5     9.6
2002 12 02    04 26.92   +29 34.0    1.778    2.758   172.2     2.8     9.6
2002 12 07    04 21.79   +29 33.2    1.786    2.761   170.0     3.5     9.6
2002 12 12    04 16.86   +29 30.2    1.801    2.765   165.4     5.2     9.7
2002 12 17    04 12.30   +29 25.3    1.823    2.768   160.0     7.0     9.8
2002 12 22    04 08.21   +29 18.9    1.852    2.772   154.4     8.8     9.9
2002 12 27    04 04.70   +29 11.7    1.887    2.775   148.8    10.6    10.0
2003 01 01    04 01.85   +29 04.2    1.928    2.779   143.3    12.2    10.1
2003 01 06    03 59.71   +28 56.9    1.974    2.783   137.8    13.7    10.2
2003 01 11    03 58.31   +28 50.2    2.026    2.787   132.5    15.1    10.3
2003 01 16    03 57.67   +28 44.5    2.081    2.790   127.4    16.3    10.4
2003 01 21    03 57.77   +28 40.0    2.141    2.794   122.4    17.3    10.5
2003 01 26    03 58.58   +28 36.8    2.203    2.798   117.5    18.2    10.6
2003 01 31    04 00.08   +28 35.0    2.268    2.802   112.8    18.9    10.7

Back to Bright Minor Planets

Astronomical Headlines Index


Valid HTML 4.01!